1507028400.8,58794,13.56,73610.8,4.19,0.01,0.75,0,*45
1507028401.99,58795,13.56,73616.8,4.19,-0.07,0.63,0,*68
1507028403.17,58796,13.56,73620.5,4.19,0.01,0.83,0,*4E
1507028404.36,58797,13.56,73628.5,4.19,0.09,0.75,0,*4E
1507028405.57,58798,13.56,73620.3,4.19,0.21,0.95,0,*75
1507028406.78,58799,13.56,73630.8,4.17,0.01,0.71,0,*42
1507028408.01,58800,13.56,73626.0,4.17,0.25,0.95,0,*71
1507028409.26,58801,13.56,73634.5,4.17,0.51,1.33,0,*4E
1507028410.51,58802,13.56,73638.5,4.17,0.75,1.55,0,*4B
1507028411.75,58803,13.56,73636.3,4.17,0.37,1.09,0,*45
1507028413.0,58804,13.56,73640.5,4.17,0.63,1.37,0,*4E
1507028414.24,58805,13.56,73634.5,4.17,0.63,1.37,0,*4F
1507028415.45,58806,13.5,73630.0,4.19,0.75,1.55,0,*41
1507028416.67,58807,13.56,73632.5,4.19,0.59,1.37,0,*4A
1507028417.86,58808,13.56,73638.3,4.19,0.37,1.05,0,*4C
1507028419.07,58809,13.56,73638.0,4.19,0.47,1.25,0,*48
1507028420.29,58810,13.56,73634.5,4.19,0.41,1.09,0,*48
1507028421.53,58811,13.56,73634.8,4.21,0.51,1.25,0,*4D
1507028422.75,58812,13.5,73630.0,4.19,0.63,1.37,0,*47
1507028423.93,58813,13.56,73632.0,4.19,0.37,0.97,0,*7C
1507028425.15,58814,13.56,73630.3,4.19,0.41,1.21,0,*46
1507028426.36,58815,13.56,73632.5,4.19,0.83,1.59,0,*46
1507028427.57,58816,13.56,73636.5,4.19,0.63,1.25,0,*40
1507028428.77,58817,13.56,73620.3,4.19,0.41,1.05,0,*43
1507028430.01,58818,13.5,73636.0,4.21,0.37,0.91,0,*7A
1507028431.21,58819,13.56,73640.0,4.19,0.63,1.43,0,*4F
1507028432.46,58820,13.56,73644.5,4.21,0.51,1.37,0,*4C
1507028433.69,58821,13.5,73640.3,4.21,0.67,1.47,0,*4F
1507028434.94,58822,13.56,73634.5,4.21,0.51,1.25,0,*4D
1507028436.14,58823,13.5,73632.8,4.21,1.01,1.75,0,*7D
1507028437.35,58824,13.56,73638.0,4.19,0.59,1.25,0,*48
1507028438.57,58825,13.56,73654.8,4.21,0.55,1.41,0,*4C
1507028439.78,58826,13.56,73650.3,4.21,0.37,0.97,0,*71
1507028441.02,58827,13.56,73650.8,4.21,0.51,1.25,0,*48
1507028442.25,58828,13.56,73652.3,4.21,0.75,1.59,0,*4A
1507028443.5,58829,13.56,73648.8,4.21,0.87,1.51,0,*4E
1507028444.74,58830,13.5,73644.3,4.21,0.75,1.51,0,*4B
1507028445.98,58831,13.5,73642.8,4.21,0.79,1.59,0,*4E
1507028447.23,58832,13.56,73646.0,4.21,0.87,1.59,0,*4C
1507028448.45,58833,13.5,73642.0,4.23,0.91,1.63,0,*41
1507028449.67,58834,13.56,73650.0,4.23,0.87,1.59,0,*48
1507028450.88,58835,13.56,73646.8,4.23,0.87,1.59,0,*49
1507028452.1,58836,13.56,73648.5,4.23,0.91,1.59,0,*4D
1507028453.28,58837,13.56,73646.3,4.23,0.75,1.41,0,*4F
1507028454.5,58838,13.5,73650.0,4.23,0.79,1.51,0,*4D
1507028455.75,58839,13.56,73654.0,4.25,0.91,1.55,0,*48
1507028456.96,58840,13.5,73648.5,4.25,0.59,1.41,0,*47
1507028458.2,58841,13.56,73650.0,4.25,0.83,1.55,0,*44
1507028459.38,58842,13.5,73640.5,4.23,0.67,1.41,0,*4E
1507028460.59,58843,13.56,73642.8,4.23,0.71,1.51,0,*49
1507028461.81,58844,13.56,73648.8,4.23,0.79,1.63,0,*47
1507028463.03,58845,13.56,73658.3,4.27,0.79,1.55,0,*47
1507028464.25,58846,13.5,73646.3,4.25,0.95,1.79,0,*4A
1507028465.5,58847,13.5,73642.0,4.25,0.91,1.67,0,*40
1507028466.73,58848,13.56,73654.3,4.25,1.13,1.79,0,*7B
1507028467.96,58849,13.5,73654.5,4.25,0.71,1.43,0,*46
1507028469.18,58850,13.56,73652.5,4.25,1.05,1.89,0,*7A
1507028470.38,58851,13.56,73650.0,4.25,1.01,1.75,0,*7C
1507028471.56,58852,13.5,73642.5,4.27,0.67,1.41,0,*4B
1507028472.77,58853,13.56,73650.0,4.29,0.75,1.43,0,*45
1507028473.99,58854,13.56,73654.8,4.27,0.79,1.55,0,*47
1507028475.21,58855,13.5,73652.3,4.29,0.95,1.67,0,*4B
1507028476.39,58856,13.5,73646.5,4.29,0.97,1.79,0,*45
1507028477.61,58857,13.56,73650.8,4.29,0.83,1.47,0,*4C
1507028478.83,58858,13.56,73648.3,4.29,0.75,1.43,0,*4E
1507028480.05,58859,13.5,73648.5,4.29,0.51,1.21,0,*4D
1507028481.27,58860,13.56,73648.8,4.29,0.37,1.17,0,*42
1507028482.49,58861,13.56,73644.8,4.29,0.51,1.21,0,*46
1507028483.72,58862,13.56,73642.8,4.29,0.51,1.17,0,*40
1507028484.91,58863,13.56,73642.8,4.29,0.43,1.17,0,*42
1507028486.1,58864,13.5,73646.0,4.29,0.43,1.33,0,*43
1507028487.33,58865,13.5,73640.0,4.29,0.47,1.21,0,*45
1507028488.55,58866,13.56,73642.8,4.29,0.87,1.67,0,*48
1507028489.78,58867,13.56,73650.8,4.29,0.87,1.67,0,*49
1507028491.0,58868,13.56,73656.3,4.29,0.59,1.33,0,*44
1507028492.2,58869,13.56,73648.3,4.27,0.29,0.95,0,*71
1507028493.39,58870,13.5,73642.3,4.27,0.41,1.05,0,*4F
1507028494.6,58871,13.5,73636.5,4.27,0.47,1.13,0,*4F
1507028495.78,58872,13.56,73634.3,4.27,0.43,1.17,0,*4C
1507028497.0,58873,13.56,73632.8,4.27,0.47,1.17,0,*49
1507028498.21,58874,13.56,73636.5,4.27,0.47,1.33,0,*48
1507028499.4,58875,13.5,73648.8,4.27,0.33,1.05,0,*4F
1507028500.58,58876,13.5,73644.3,4.27,0.43,1.13,0,*4C
1507028501.79,58877,13.56,73632.5,4.27,0.55,1.17,0,*4E
1507028503.01,58878,13.56,73630.3,4.27,0.91,1.51,0,*4B
1507028504.23,58879,13.5,73628.8,4.29,0.95,1.71,0,*42
1507028505.45,58880,13.5,73638.3,4.27,0.83,1.55,0,*4B
1507028506.66,58881,13.5,73644.5,4.29,0.59,1.43,0,*44
1507028507.85,58882,13.56,73650.8,4.29,1.05,1.83,0,*73
1507028509.03,58883,13.56,73652.8,4.29,0.97,1.79,0,*4D
1507028510.26,58884,13.5,73650.3,4.33,1.21,1.97,0,*7D
1507028511.52,58885,13.5,73652.0,4.31,1.25,2.05,0,*72
1507028512.79,58886,13.56,73646.3,4.31,1.09,1.85,0,*74
1507028514.03,58887,13.56,73652.3,4.33,1.37,2.09,0,*7D
1507028515.21,58888,13.56,73654.5,4.33,1.01,1.75,0,*7F
1507028516.45,58889,13.56,73652.3,4.33,1.21,2.05,0,*78
1507028517.67,58890,13.56,73648.3,4.33,0.79,1.51,0,*4E
1507028518.89,58891,13.5,73632.3,4.33,0.29,0.91,0,*77
1507028520.14,58892,13.56,73630.5,4.31,0.41,1.21,0,*42
1507028521.36,58893,13.5,73642.0,4.31,0.37,1.01,0,*40
1507028522.59,58894,13.56,73638.0,4.31,-0.11,0.67,0,*5F
1507028523.83,58895,13.5,73632.5,4.31,0.17,0.91,0,*7C
1507028525.07,58896,13.5,73620.3,4.31,0.17,0.87,0,*78
1507028526.28,58897,13.56,73626.8,4.29,0.33,0.95,0,*75
1507028527.47,58898,13.56,73640.0,4.29,0.37,0.97,0,*7C
1507028528.68,58899,13.56,73632.5,4.29,0.33,0.95,0,*7B
1507028529.88,58900,13.56,73632.8,4.27,0.13,0.75,0,*78
1507028531.1,58901,13.5,73622.8,4.27,0.21,0.91,0,*72
1507028532.29,58902,13.5,73624.5,4.29,0.09,0.75,0,*4F
1507028533.51,58903,13.56,73622.8,4.29,0.37,1.09,0,*49
1507028534.73,58904,13.56,73626.5,4.27,0.21,0.91,0,*77
1507028535.93,58905,13.5,73626.5,4.27,0.21,0.95,0,*72
1507028537.15,58906,13.56,73618.3,4.27,0.21,0.91,0,*75
1507028538.35,58907,13.5,73632.5,4.25,0.05,0.79,0,*46
1507028539.56,58908,13.56,73630.5,4.25,0.05,0.67,0,*46
1507028540.74,58909,13.56,73612.5,4.27,-0.03,0.67,0,*6E
1507028541.92,58910,13.56,73602.3,4.23,-0.19,0.43,0,*5F
1507028543.12,58911,13.56,73604.5,4.23,-0.29,0.47,0,*59
1507028544.31,58912,13.5,73612.5,4.23,-0.11,0.63,0,*57
1507028545.5,58913,13.5,73628.0,4.23,-0.07,0.67,0,*65
1507028546.71,58914,13.5,73624.8,4.25,-0.03,0.71,0,*67
1507028547.9,58915,13.56,73628.0,4.23,-0.07,0.67,0,*63
1507028549.11,58916,13.5,73624.0,4.25,-0.03,0.79,0,*6D
1507028550.33,58917,13.5,73642.0,4.23,0.37,1.09,0,*46
1507028551.51,58918,13.56,73636.8,4.23,0.43,1.13,0,*41
1507028552.73,58919,13.56,73626.0,4.23,0.41,1.25,0,*47
1507028553.91,58920,13.5,73626.3,4.23,0.29,0.97,0,*7B
1507028555.09,58921,13.5,73632.3,4.23,0.25,0.97,0,*76
1507028556.27,58922,13.56,73636.3,4.23,0.01,0.67,0,*4C
1507028557.46,58923,13.5,73624.3,4.23,0.25,1.01,0,*4A
1507028558.67,58924,13.56,73638.0,4.21,0.25,1.01,0,*4F
1507028559.85,58925,13.5,73624.3,4.23,0.01,0.67,0,*4B
1507028561.04,58926,13.56,73604.0,4.19,-0.03,0.63,0,*6A
1507028562.24,58927,13.56,73600.5,4.21,-0.19,0.43,0,*59
1507028563.48,58928,13.56,73610.8,4.21,0.13,0.87,0,*79
1507028564.66,58929,13.5,73618.3,4.19,0.37,0.97,0,*74
1507028565.9,58930,13.56,73614.3,4.21,0.17,0.79,0,*75
1507028567.11,58931,13.5,73620.3,4.19,0.59,1.33,0,*4A
1507028568.35,58932,13.5,73628.8,4.21,0.75,1.47,0,*4F
1507028569.59,58933,13.5,73626.3,4.21,0.17,0.87,0,*77
1507028570.8,58934,13.56,73636.0,4.19,0.63,1.33,0,*46
1507028572.05,58935,13.5,73626.5,4.21,0.79,1.55,0,*47
1507028573.25,58936,13.56,73638.0,4.21,1.01,1.75,0,*78
1507028574.5,58937,13.56,73640.8,4.21,0.87,1.47,0,*47
1507028575.69,58938,13.5,73638.8,4.23,0.97,1.71,0,*4E
1507028576.91,58939,13.5,73638.3,4.25,1.01,1.67,0,*70
1507028578.15,58940,13.5,73634.3,4.25,0.67,1.17,0,*48
1507028579.36,58941,13.56,73644.5,4.25,0.79,1.41,0,*45
1507028580.57,58942,13.5,73644.3,4.23,0.63,1.25,0,*49
1507028581.82,58943,13.5,73644.3,4.25,0.91,1.43,0,*43
1507028583.04,58944,13.56,73656.3,4.23,0.91,1.47,0,*46
1507028584.27,58945,13.5,73648.0,4.25,0.67,1.33,0,*4B
1507028585.52,58946,13.5,73648.0,4.25,0.91,1.51,0,*45
1507028586.73,58947,13.5,73642.5,4.23,0.67,1.37,0,*4B
1507028587.93,58948,13.56,73642.3,4.25,0.43,0.95,0,*7D
1507028589.17,58949,13.56,73648.5,4.25,0.59,1.29,0,*41
1507028590.38,58950,13.5,73642.3,4.27,0.79,1.43,0,*45
1507028591.59,58951,13.56,73642.0,4.27,0.59,1.17,0,*47
1507028592.78,58952,13.5,73640.0,4.27,0.83,1.41,0,*40
1507028594.01,58953,13.5,73640.5,4.27,1.21,1.85,0,*70
1507028595.23,58954,13.56,73640.0,4.27,1.25,1.89,0,*7F
1507028596.44,58955,13.5,73642.5,4.27,0.79,1.43,0,*40
1507028597.66,58956,13.5,73642.0,4.29,0.95,1.59,0,*44
1507028598.88,58957,13.5,73638.5,4.29,0.63,1.33,0,*40
1507028600.1,58958,13.5,73640.8,4.29,0.75,1.47,0,*4B
1507028601.28,58959,13.56,73646.5,4.29,1.05,1.79,0,*71
1507028602.49,58960,13.5,73642.8,4.29,1.09,1.79,0,*77
1507028603.74,58961,13.5,73632.5,4.31,0.63,1.21,0,*4F
1507028604.95,58962,13.5,73618.0,4.31,0.01,0.63,0,*4F
1507028606.17,58963,13.56,73632.5,4.31,0.01,0.51,0,*4F
1507028607.39,58964,13.5,73626.5,4.31,-0.07,0.63,0,*62
1507028608.6,58965,13.56,73634.5,4.29,0.37,0.87,0,*7E
1507028609.82,58966,13.56,73646.3,4.29,0.13,0.83,0,*7F
1507028611.04,58967,13.56,73632.3,4.29,0.25,0.75,0,*72
1507028612.24,58968,13.56,73624.5,4.27,0.17,0.71,0,*76
1507028613.46,58969,13.5,73634.5,4.29,0.21,0.71,0,*7C
1507028614.67,58970,13.56,73638.3,4.27,0.41,0.91,0,*72
1507028615.89,58971,13.5,73634.3,4.27,0.55,1.13,0,*4D
1507028617.1,58972,13.5,73636.0,4.27,0.71,1.29,0,*41
1507028618.29,58973,13.5,73632.5,4.25,0.43,1.01,0,*49
1507028619.5,58974,13.56,73632.8,4.25,0.43,0.91,0,*76
1507028620.7,58975,13.56,73638.8,4.27,0.41,0.95,0,*73
1507028621.91,58976,13.5,73638.3,4.27,0.29,0.83,0,*79
1507028623.11,58977,13.5,73630.5,4.29,-0.03,0.59,0,*64
1507028624.29,58978,13.5,73636.0,4.27,0.09,0.71,0,*48
1507028625.52,58979,13.5,73634.5,4.29,0.47,1.09,0,*43
1507028626.69,58980,13.56,73638.3,4.27,0.43,0.95,0,*7B
1507028627.9,58981,13.5,73620.8,4.27,0.41,0.83,0,*7F
1507028629.11,58982,13.5,73624.5,4.27,0.21,0.67,0,*70
1507028630.32,58983,13.56,73630.5,4.25,0.09,0.59,0,*44
1507028631.5,58984,13.56,73628.0,4.25,0.43,1.01,0,*41
1507028632.74,58985,13.5,73630.0,4.25,0.67,1.29,0,*4C
1507028633.97,58986,13.5,73636.5,4.25,0.83,1.43,0,*49
1507028635.15,58987,13.56,73636.8,4.25,0.43,1.01,0,*42
1507028636.37,58988,13.56,73630.3,4.25,0.47,1.05,0,*4D
1507028637.6,58989,13.56,73628.5,4.25,0.33,0.83,0,*70
1507028638.79,58990,13.5,73626.5,4.29,0.01,0.63,0,*4B
1507028639.95,58991,13.5,73628.5,4.27,-0.07,0.43,0,*6D
1507028641.16,58992,13.5,73620.3,4.25,0.09,0.59,0,*44
1507028642.38,58993,13.56,73618.0,4.25,-0.03,0.47,0,*6D
1507028643.56,58994,13.5,73608.3,4.23,0.01,0.63,0,*45
1507028644.78,58995,13.5,73616.8,4.25,-0.29,0.29,0,*5B
1507028645.99,58996,13.5,73630.5,4.23,0.17,0.75,0,*77
1507028647.18,58997,13.56,73616.3,4.23,0.05,0.55,0,*47
1507028648.39,58998,13.5,73624.5,4.23,0.17,0.63,0,*7E
1507028649.61,58999,13.5,73632.8,4.23,0.51,1.09,0,*40
1507028650.77,59000,13.5,73620.5,4.23,-0.07,0.43,0,*69
1507028651.93,59001,13.5,73618.3,4.23,0.43,1.01,0,*42
1507028653.16,59002,13.5,73620.5,4.23,0.79,1.37,0,*4D
1507028654.37,59003,13.56,73616.5,4.23,0.51,1.09,0,*4B
1507028655.59,59004,13.5,73610.0,4.25,0.59,1.05,0,*4E
1507028656.8,59005,13.5,73616.8,4.23,0.29,0.79,0,*74
1507028658.01,59006,13.5,73608.3,4.23,0.37,0.91,0,*7E
1507028659.22,59007,13.5,73608.0,4.23,0.67,1.25,0,*44
1507028660.43,59008,13.5,73616.3,4.23,0.37,0.87,0,*77
1507028661.65,59009,13.5,73616.8,4.23,0.41,0.91,0,*70
1507028662.88,59010,13.5,73622.3,4.25,0.59,1.17,0,*48
1507028664.13,59011,13.5,73626.5,4.25,0.55,1.13,0,*41
1507028665.37,59012,13.56,73626.8,4.25,0.59,1.13,0,*4E
1507028666.58,59013,13.56,73630.5,4.25,0.47,1.05,0,*47
1507028667.8,59014,13.56,73628.3,4.27,0.79,1.33,0,*4A
1507028669.01,59015,13.5,73626.0,4.27,0.83,1.43,0,*49
1507028670.23,59016,13.5,73620.0,4.27,0.71,1.33,0,*40
1507028671.44,59017,13.5,73620.3,4.27,0.55,0.95,0,*7A
1507028672.64,59018,13.5,73630.3,4.27,0.21,0.71,0,*7C
1507028673.83,59019,13.5,73626.5,4.27,0.05,0.67,0,*4C
1507028675.04,59020,13.5,73620.0,4.27,0.59,1.13,0,*4D
1507028676.24,59021,13.56,73630.5,4.27,0.17,0.67,0,*74
1507028677.43,59022,13.5,73620.5,4.27,-0.15,0.41,0,*5C
1507028678.64,59023,13.56,73626.3,4.23,0.13,0.55,0,*77
1507028679.83,59024,13.5,73624.3,4.25,-0.15,0.43,0,*5A
1507028681.02,59025,13.5,73624.5,4.23,0.05,0.55,0,*46
1507028682.26,59026,13.56,73636.8,4.25,0.41,0.83,0,*78
1507028683.47,59027,13.5,73638.3,4.25,-0.07,0.41,0,*68
1507028684.66,59028,13.56,73628.3,4.23,-0.07,0.41,0,*61
1507028685.87,59029,13.5,73628.5,4.23,0.25,0.79,0,*76
1507028687.08,59030,13.56,73634.3,4.23,0.29,0.75,0,*7E
1507028688.31,59031,13.56,73640.5,4.25,0.17,0.67,0,*77
1507028689.53,59032,13.5,73636.0,4.23,-0.23,0.25,0,*5E
1507028690.7,59033,13.5,73634.0,4.23,-0.33,0.05,0,*6C
1507028691.88,59034,13.5,73622.3,4.23,0.01,0.51,0,*46
1507028693.07,59035,13.5,73634.5,4.23,0.05,0.55,0,*47
1507028694.31,59036,13.56,73638.3,4.21,0.25,0.63,0,*71
1507028695.49,59037,13.5,73628.8,4.19,0.01,0.63,0,*4D
1507028696.68,59038,13.5,73638.0,4.19,0.09,0.51,0,*4B
1507028697.91,59039,13.5,73634.3,4.21,0.29,0.67,0,*76
1507028699.12,59040,13.5,73640.3,4.21,0.01,0.51,0,*47
1507028700.33,59041,13.5,73628.5,4.19,0.17,0.63,0,*7B
1507028701.54,59042,13.5,73616.0,4.19,0.21,0.59,0,*74
1507028702.74,59043,13.5,73626.3,4.19,-0.03,0.47,0,*67
1507028703.93,59044,13.5,73622.8,4.19,0.09,0.59,0,*48
1507028705.15,59045,13.5,73638.8,4.21,0.05,0.51,0,*46
1507028706.38,59046,13.5,73634.8,4.21,0.37,0.67,0,*71
1507028707.59,59047,13.5,73632.5,4.19,0.21,0.59,0,*71
1507028708.81,59048,13.56,73626.8,4.19,0.71,1.21,0,*45
1507028710.05,59049,13.5,73630.0,4.21,0.41,0.75,0,*7C
1507028711.28,59050,13.56,73638.5,4.19,0.87,1.33,0,*46
1507028712.49,59051,13.5,73632.3,4.19,0.71,1.25,0,*49
1507028713.73,59052,13.5,73634.3,4.21,0.75,1.25,0,*45
1507028714.96,59053,13.5,73630.3,4.23,0.79,1.37,0,*49
1507028716.15,59054,13.5,73620.5,4.23,0.91,1.41,0,*49
1507028717.32,59055,13.5,73614.3,4.23,1.01,1.41,0,*70
1507028718.49,59056,13.5,73616.5,4.23,0.97,1.41,0,*4D
1507028719.7,59057,13.56,73642.5,4.23,0.75,1.37,0,*41
1507028720.91,59058,13.5,73628.8,4.25,0.43,0.83,0,*73
1507028722.15,59059,13.56,73626.8,4.25,0.71,1.13,0,*4B
1507028723.39,59060,13.5,73618.8,4.25,0.83,1.33,0,*4E
1507028724.61,59061,13.5,73622.8,4.25,0.59,1.01,0,*49
1507028725.85,59062,13.5,73632.5,4.25,0.71,1.13,0,*43
1507028727.04,59063,13.5,73636.5,4.27,0.55,1.01,0,*45
1507028728.22,59064,13.5,73638.8,4.27,0.59,1.01,0,*4E
1507028729.41,59065,13.56,73646.8,4.27,0.59,1.05,0,*4B
1507028730.59,59066,13.56,73646.3,4.27,0.79,1.41,0,*4A
1507028731.82,59067,13.5,73642.0,4.29,0.83,1.33,0,*45
1507028733.02,59068,13.56,73646.8,4.29,1.05,1.47,0,*76
1507028734.24,59069,13.5,73646.0,4.29,0.95,1.43,0,*4B
1507028735.46,59070,13.5,73652.5,4.29,0.95,1.43,0,*43
1507028736.69,59071,13.5,73648.8,4.29,0.87,1.37,0,*42
1507028737.89,59072,13.56,73644.8,4.29,0.51,1.05,0,*4B
1507028739.13,59073,13.5,73634.8,4.31,0.41,0.87,0,*79
1507028740.31,59074,13.5,73640.8,4.29,0.43,0.95,0,*76
1507028741.51,59075,13.5,73648.0,4.29,0.71,1.05,0,*4E
1507028742.76,59076,13.5,73648.3,4.31,0.47,0.87,0,*7A
1507028744.01,59077,13.5,73642.8,4.31,0.47,0.91,0,*7C
1507028745.23,59078,13.5,73648.0,4.29,0.51,0.87,0,*7A
1507028746.43,59079,13.5,73654.3,4.27,0.59,0.95,0,*7E
1507028747.62,59080,13.5,73652.5,4.29,0.59,0.97,0,*74
1507028748.84,59081,13.5,73658.8,4.29,0.75,1.17,0,*42
1507028750.06,59082,13.56,73660.0,4.29,0.75,1.17,0,*41
1507028751.24,59083,13.5,73654.3,4.33,0.75,0.97,0,*72
1507028752.49,59084,13.5,73654.0,4.31,0.63,1.21,0,*4C
1507028753.69,59085,13.5,73648.3,4.33,0.97,1.59,0,*4B
1507028754.91,59086,13.56,73638.3,4.33,0.67,1.37,0,*4F
1507028756.15,59087,13.5,73634.8,4.31,0.79,1.47,0,*44
1507028757.41,59088,13.5,73632.5,4.31,0.87,1.51,0,*4D
1507028758.63,59089,13.5,73630.0,4.33,0.63,1.21,0,*43
1507028759.85,59090,13.5,73634.8,4.33,0.79,1.47,0,*40
1507028761.07,59091,13.5,73630.5,4.33,0.87,1.51,0,*47
1507028762.3,59092,13.5,73634.0,4.33,0.91,1.59,0,*4B
1507028763.53,59093,13.56,73634.8,4.33,1.13,1.93,0,*77
1507028764.74,59094,13.56,73636.8,4.35,1.05,1.75,0,*79
1507028765.96,59095,13.56,73640.3,4.35,1.05,1.67,0,*7B
1507028767.21,59096,13.5,73628.5,4.39,0.55,1.25,0,*46
1507028768.44,59097,13.56,73620.3,4.39,0.21,0.79,0,*7C
1507028769.67,59098,13.5,73616.5,4.35,-0.41,0.21,0,*59
1507028770.87,59099,13.5,73606.3,4.33,-0.33,0.29,0,*53
1507028772.06,59100,13.5,73606.3,4.33,-0.33,0.25,0,*5E
1507028773.28,59101,13.5,73612.0,4.31,0.01,0.55,0,*46
1507028774.5,59102,13.5,73618.0,4.33,-0.23,0.41,0,*5F
1507028775.72,59103,13.5,73618.3,4.31,0.01,0.55,0,*44
1507028776.96,59104,13.5,73626.0,4.31,0.17,0.75,0,*76
1507028778.14,59105,13.5,73626.3,4.29,0.01,0.67,0,*4A
1507028779.38,59106,13.5,73632.5,4.31,0.17,0.79,0,*78
1507028780.62,59107,13.5,73622.0,4.31,0.25,0.87,0,*79
1507028781.84,59108,13.56,73618.0,4.29,0.13,0.71,0,*73
1507028783.02,59109,13.5,73624.0,4.27,0.05,0.67,0,*4C
1507028784.2,59110,13.5,73634.5,4.27,0.09,0.71,0,*4F
1507028785.4,59111,13.5,73626.5,4.27,0.21,0.95,0,*7E
1507028786.63,59112,13.5,73632.8,4.29,0.63,1.33,0,*48
1507028787.84,59113,13.5,73630.0,4.27,0.25,0.87,0,*7B
1507028789.04,59114,13.5,73632.0,4.27,0.17,0.79,0,*7C
1507028790.23,59115,13.5,73632.5,4.27,-0.03,0.59,0,*67
1507028791.42,59116,13.5,73634.0,4.27,-0.03,0.55,0,*68
1507028792.59,59117,13.5,73634.5,4.27,-0.15,0.43,0,*59
1507028793.8,59118,13.5,73634.0,4.27,0.17,0.79,0,*70
1507028795.0,59119,13.5,73630.0,4.25,0.05,0.67,0,*4F
1507028796.24,59120,13.5,73626.0,4.25,-0.27,0.33,0,*59
1507028797.43,59121,13.5,73630.0,4.23,-0.07,0.63,0,*69
1507028798.64,59122,13.5,73616.8,4.25,-0.03,0.67,0,*6C
1507028799.82,59123,13.5,73636.0,4.23,-0.19,0.43,0,*56
1507028801.01,59124,13.5,73630.8,4.23,-0.19,0.41,0,*53
1507028802.18,59125,13.5,73636.5,4.23,-0.07,0.43,0,*6F
1507028803.37,59126,13.56,73624.8,4.23,-0.07,0.63,0,*6E
1507028804.57,59127,13.5,73622.5,4.23,-0.11,0.51,0,*59
1507028805.77,59128,13.5,73626.8,4.23,-0.11,0.41,0,*57
1507028806.94,59129,13.5,73632.3,4.23,-0.19,0.43,0,*5C
1507028808.14,59130,13.5,73634.0,4.23,-0.11,0.51,0,*5F
1507028809.38,59131,13.5,73624.5,4.21,0.13,0.75,0,*75
1507028810.58,59132,13.5,73622.0,4.21,0.01,0.67,0,*46
1507028811.8,59133,13.5,73630.5,4.21,-0.07,0.63,0,*68
1507028812.99,59134,13.5,73616.3,4.19,0.09,0.63,0,*47
1507028814.21,59135,13.5,73626.0,4.21,-0.19,0.41,0,*51
1507028815.42,59136,13.5,73626.5,4.19,0.21,0.87,0,*75
1507028816.64,59137,13.5,73634.3,4.21,0.43,1.09,0,*4C
1507028817.88,59138,13.5,73630.5,4.21,0.55,1.25,0,*4A
1507028819.07,59139,13.5,73626.5,4.19,0.41,0.97,0,*7D
1507028820.29,59140,13.5,73624.8,4.21,-0.07,0.51,0,*6D
1507028821.49,59141,13.5,73624.0,4.19,0.25,0.95,0,*72
1507028822.71,59142,13.5,73628.0,4.21,0.41,1.01,0,*44
1507028823.95,59143,13.5,73636.8,4.21,0.25,0.79,0,*79
1507028825.13,59144,13.56,73636.3,4.19,0.37,0.97,0,*76
1507028826.38,59145,13.5,73632.5,4.21,0.55,1.09,0,*4E
1507028827.59,59146,13.5,73630.5,4.19,0.51,1.25,0,*4C
1507028828.81,59147,13.5,73630.8,4.19,0.67,1.37,0,*4B
1507028830.02,59148,13.5,73628.3,4.23,0.55,1.13,0,*4A
1507028831.24,59149,13.5,73634.5,4.23,0.37,0.91,0,*74
1507028832.45,59150,13.5,73628.8,4.23,0.17,0.75,0,*74
1507028833.67,59151,13.5,73634.8,4.23,0.51,1.09,0,*4D
1507028834.82,59152,13.5,73640.3,4.23,0.43,0.97,0,*7B
1507028836.04,59153,13.5,73642.8,4.23,0.79,1.51,0,*48
1507028837.3,59154,13.5,73640.3,4.25,1.21,1.97,0,*7F
1507028838.49,59155,13.5,73646.5,4.23,0.97,1.67,0,*4B
1507028839.69,59156,13.5,73642.8,4.25,1.05,1.79,0,*7B
1507028840.94,59157,13.5,73650.0,4.25,0.91,1.63,0,*4D
1507028842.14,59158,13.56,73644.5,4.25,1.05,1.75,0,*79
1507028843.39,59159,13.5,73632.5,4.25,0.79,1.29,0,*4B
1507028844.54,59160,13.5,73634.8,4.27,0.43,1.01,0,*40
1507028845.75,59161,13.5,73620.3,4.27,0.71,1.29,0,*4A
1507028846.97,59162,13.5,73622.5,4.27,0.55,1.13,0,*46
1507028848.16,59163,13.5,73616.8,4.27,0.51,1.05,0,*44
1507028849.36,59164,13.5,73618.0,4.27,0.41,0.95,0,*7A
1507028850.57,59165,13.5,73602.5,4.27,0.41,0.95,0,*7B
1507028851.77,59166,13.5,73600.8,4.27,0.41,0.95,0,*78
1507028852.95,59167,13.5,73602.5,4.27,0.43,0.91,0,*7F
1507028854.19,59168,13.5,73602.3,4.25,0.29,0.83,0,*7D
1507028855.43,59169,13.5,73610.3,4.25,0.41,0.91,0,*71
1507028856.66,59170,13.5,73614.0,4.25,0.41,0.83,0,*7A
1507028857.9,59171,13.5,73614.3,4.25,0.67,1.13,0,*47
1507028859.13,59172,13.5,73602.5,4.25,0.47,0.95,0,*79
1507028860.34,59173,13.5,73606.3,4.25,0.47,1.01,0,*44
1507028861.55,59174,13.5,73598.3,4.25,0.43,0.95,0,*7B
1507028862.77,59175,13.5,73598.8,4.25,0.33,0.95,0,*7D
1507028863.95,59176,13.5,73610.5,4.25,0.43,1.01,0,*45
1507028865.17,59177,13.5,73604.3,4.27,0.41,0.91,0,*7C
1507028866.35,59178,13.5,73600.8,4.27,0.47,1.01,0,*4D
1507028867.56,59179,13.5,73620.3,4.27,0.33,0.91,0,*77
1507028868.75,59180,13.5,73620.8,4.25,0.43,1.01,0,*4C
1507028869.96,59181,13.5,73616.0,4.25,0.55,1.01,0,*4A
1507028871.18,59182,13.5,73610.3,4.23,0.17,0.75,0,*7B
1507028872.42,59183,13.5,73620.8,4.25,0.71,1.13,0,*4D
1507028873.65,59184,13.56,73620.0,4.25,0.59,1.17,0,*44
1507028874.87,59185,13.5,73622.8,4.25,0.41,1.01,0,*4B
1507028876.11,59186,13.5,73626.3,4.25,0.71,1.17,0,*4C
1507028877.32,59187,13.5,73608.0,4.25,0.47,1.01,0,*4F
1507028878.56,59188,13.5,73616.5,4.25,0.71,1.13,0,*46
1507028879.8,59189,13.5,73612.0,4.25,0.71,1.17,0,*43
1507028881.05,59190,13.5,73614.8,4.25,0.79,1.33,0,*45
1507028882.28,59191,13.5,73610.5,4.25,0.41,0.79,0,*70
1507028883.52,59192,13.5,73618.8,4.25,0.41,0.83,0,*76
1507028884.7,59193,13.5,73622.8,4.27,0.83,1.41,0,*44
1507028885.91,59194,13.5,73618.3,4.25,0.83,1.41,0,*41
1507028887.1,59195,13.5,73616.3,4.27,0.55,1.01,0,*4D
1507028888.31,59196,13.5,73618.5,4.27,0.47,0.95,0,*71
1507028889.52,59197,13.5,73620.3,4.27,0.59,1.13,0,*40
1507028890.71,59198,13.5,73622.3,4.27,0.55,1.01,0,*40
1507028891.92,59199,13.56,73624.5,4.27,0.41,0.83,0,*7F
1507028893.1,59200,13.5,73624.8,4.27,0.59,1.01,0,*4E
1507028894.31,59201,13.5,73620.3,4.27,0.47,0.95,0,*7C
1507028895.55,59202,13.5,73626.5,4.25,0.59,1.13,0,*4D
1507028896.76,59203,13.5,73632.3,4.23,0.67,1.25,0,*42
1507028898.0,59204,13.5,73624.3,4.25,0.71,1.17,0,*45
1507028899.21,59205,13.5,73632.3,4.25,0.83,1.41,0,*4A
1507028900.42,59206,13.5,73634.3,4.27,0.67,1.13,0,*46
1507028901.6,59207,13.5,73638.8,4.27,0.59,1.05,0,*4D
1507028902.79,59208,13.5,73636.0,4.27,0.91,1.41,0,*46
1507028903.98,59209,13.5,73638.5,4.27,0.91,1.41,0,*47
1507028905.18,59210,13.5,73632.0,4.27,1.05,1.51,0,*72
1507028906.41,59211,13.5,73636.3,4.29,1.21,1.59,0,*73
1507028907.64,59212,13.5,73638.5,4.29,1.25,1.67,0,*79
1507028908.87,59213,13.5,73632.3,4.29,1.17,1.59,0,*74
1507028910.07,59214,13.5,73630.0,4.29,1.05,1.47,0,*7F
1507028911.28,59215,13.5,73612.5,4.29,1.05,1.47,0,*7E
1507028912.5,59216,13.5,73616.0,4.29,0.95,1.37,0,*42
1507028913.7,59217,13.5,73618.3,4.29,0.75,1.05,0,*4C
1507028914.91,59218,13.5,73626.5,4.29,0.95,1.43,0,*4F
1507028916.17,59219,13.56,73630.5,4.31,1.09,1.51,0,*70
1507028917.43,59220,13.5,73624.5,4.31,1.21,1.59,0,*78
1507028918.64,59221,13.5,73630.0,4.33,1.41,1.85,0,*7C
1507028919.87,59222,13.5,73630.3,4.33,1.25,1.71,0,*76
1507028921.1,59223,13.5,73638.5,4.33,1.13,1.71,0,*72
1507028922.33,59224,13.5,73640.3,4.33,0.91,1.37,0,*4C
1507028923.56,59225,13.5,73654.3,4.33,0.87,1.37,0,*4A
1507028924.79,59226,13.5,73658.5,4.33,0.79,1.25,0,*4B
1507028926.01,59227,13.5,73650.3,4.33,0.75,1.13,0,*43
1507028927.24,59228,13.56,73652.5,4.35,0.33,0.83,0,*70
1507028928.45,59229,13.5,73638.5,4.33,0.25,0.67,0,*7A
1507028929.65,59230,13.5,73630.3,4.33,0.05,0.51,0,*45
1507028930.9,59231,13.5,73596.5,4.31,-0.23,0.29,0,*50
1507028932.11,59232,13.5,73596.8,4.31,0.01,0.47,0,*46
1507028933.36,59233,13.5,73598.8,4.31,0.17,0.75,0,*71
1507028934.6,59234,13.5,73592.5,4.31,0.25,0.75,0,*77